Terminal Aerodrome Forecast
Issued by NWS

Home | Current Version | Previous Version | Text Only | Print | Product List | Glossary On
Versions: 1 2 3 4 5 6 7 8 9 10 11 12 13 14
000
FTUS46 KSEW 032347
TAFBLI
TAF
KBLI 032347Z 0400/0424 17008KT P6SM -SHRA BKN040 BKN060
     FM040100 VRB04KT P6SM BKN060
     FM040400 14003KT P6SM SCT060 BKN100
     FM040900 VRB03KT P6SM SCT020 BKN050
     FM041800 02003KT P6SM BKN080=

USA.gov is the U.S. government's official web portal to all federal, state and local government web resources and services.